Погода в Хольстебро

Дания     56°21′28″N   8°37′25″E
темп.,
°C
ветер,
м/с
пор.,
м/с
влажн.,
%
обл.,
%
осадки,
мм/ч
давл.,
гПа
погр.,
м
12 августа, пт
пт1223:00+16св22804 0.0 102411
02:00+15всв11820 0.0 102411
05:00+15вюв22860 0.0 102311
08:00+18юв11690 0.0 102397
11:00+24ююв22460 0.0 1023677
14:00+28ююз23350 0.0 10221391
17:00+28зсз43375 0.0 1021975
20:00+22с355610 0.0 1021171
13 августа, сб
сб1323:00+17св33683 0.0 102137
02:00+16вюв23723 0.0 102124
05:00+16ююв22655 0.0 102011
08:00+19юв11540 0.0 102077
11:00+26юв11363 0.0 1020627
14:00+29юз233037 0.0 10191548
17:00+28з443290 0.0 1018981
20:00+23сз335115 0.0 101858
14 августа, вс
вс1423:00+18всв336617 0.0 101823
02:00+17в226722 0.0 101711
05:00+17вюв226760 0.0 101611
08:00+20юв235459 0.0 101698
11:00+27вюв44410 0.0 1015758
14:00+31юв443185 0.0 10132685
17:00+25з5652100 0.1 1013264
20:00+23в225980 0.4 101224
15 августа, пн
пн1523:00+20вюв4760100 0.0 101199
02:00+20юв41066100 0.0 1010236
05:00+19вюв41168100 0.0 1009263
08:00+20в4966100 0.0 1008279
11:00+24вюв6856100 0.1 1008733
14:00+27вюв674839 0.1 10061306
17:00+29в564021 0.0 10041959
20:00+24св146288 0.6 1004179
16 августа, вт
вт1623:00+19в3491100 3.6 100492
02:00+18юв369689 4.1 1004148
05:00+17ю359599 0.0 1003107
08:00+19ю238899 0.0 1004162
11:00+23юз446899 0.0 1004701
14:00+25юз555614 0.0 10041023
17:00+24з556311 0.8 1005816
20:00+21з34765 0.8 1006376